Theta_e
323 323 323 323 324 325 325 326 325 325 330 329 326 325 338 340 341 343 345 346 345 343 339 338 337 336 335 335 336 337 339 342 344 344 346 344 342 342 341 337 337 337 337 336
324 322 324 324 324 324 324 325 326 328 328 329 329 332 335 339 340 340 343 344 345 341 338 335 334 332 332 333 333 334 334 336 336 337 339 338 337 336 335 335 334 332 332 333
323 325 324 323 323 323 323 324 326 328 331 328 332 332 335 339 340 341 342 341 343 341 338 335 332 330 329 329 329 330 330 331 331 331 333 335 334 328 327 327 327 329 328 329
324 326 324 322 322 322 324 325 326 327 331 330 331 331 336 338 341 343 342 341 341 339 335 333 331 329 327 326 327 327 328 326 327 326 326 327 325 325 324 323 325 325 325 324
324 324 323 323 324 324 327 326 325 326 327 327 329 328 326 336 340 340 341 341 340 337 334 332 330 328 325 325 325 326 325 324 324 324 324 321 322 321 320 321 321 321 320 320
326 325 325 325 325 325 326 325 325 325 325 326 327 327 327 332 338 337 339 340 340 336 332 331 329 327 326 324 324 324 324 324 324 324 324 324 324 322 322 322 320 319 319 318
325 325 324 325 325 325 324 326 328 329 329 327 328 327 326 329 329 329 329 340 339 336 332 330 329 328 326 324 323 323 325 324 324 323 323 323 323 322 321 321 319 319 318 318
327 325 325 325 325 327 326 326 328 331 330 329 329 330 330 334 333 331 331 331 336 335 331 330 327 328 327 325 322 322 324 324 324 323 323 323 322 320 319 321 320 319 319 320
326 327 326 325 325 325 325 326 327 328 329 330 329 328 333 333 332 332 332 334 335 333 330 328 328 328 327 326 323 323 324 324 324 323 323 323 322 322 322 322 321 320 320 319
328 329 327 326 325 324 325 327 329 328 330 331 328 328 328 334 331 333 333 333 331 330 329 328 328 328 327 327 326 324 324 324 324 323 323 322 322 321 321 321 322 322 322 321
326 329 329 327 325 325 327 327 327 329 330 332 331 328 329 328 328 333 334 334 332 330 329 329 328 327 328 327 326 324 323 324 324 323 323 322 322 321 321 322 322 321 321 321
326 328 330 328 327 327 328 329 330 332 333 331 331 331 331 329 328 332 333 333 333 331 331 330 328 328 328 327 326 325 324 323 323 323 322 322 322 322 322 322 322 322 322 322
328 329 330 329 330 329 328 326 327 329 331 332 333 330 330 329 329 328 329 330 333 333 332 331 329 329 328 327 326 325 325 324 323 322 321 321 321 321 322 321 321 322 322 322
331 331 330 330 329 329 332 330 328 329 332 330 330 329 329 331 329 328 329 329 330 332 332 332 332 330 330 328 327 327 326 325 324 323 322 320 320 321 320 319 319 318 317 317
330 333 329 328 328 327 328 329 328 329 329 331 329 328 327 326 328 328 328 328 328 328 329 329 332 331 330 329 328 327 326 324 323 323 322 322 321 319 317 316 314 314 312 312
330 334 332 330 328 328 327 326 326 326 326 327 328 327 325 326 326 326 326 327 327 329 330 330 331 330 330 329 328 327 326 325 325 323 321 318 316 317 315 314 314 313 313 312
331 333 332 332 329 329 331 328 328 327 327 327 327 325 326 327 327 327 327 327 328 328 328 327 327 326 325 325 324 326 325 323 322 320 317 316 315 314 313 313 313 313 313 312
331 332 330 329 330 333 328 326 326 325 325 325 325 325 326 325 325 327 327 327 327 327 327 327 325 324 323 322 322 322 320 319 318 317 315 314 313 312 312 311 310 310 309 308
329 330 330 334 329 327 325 326 326 325 326 324 325 326 325 324 327 328 326 326 326 327 325 324 323 322 321 320 319 318 317 316 315 314 314 312 310 310 309 309 308 308 308 308
328 330 331 329 333 333 327 326 326 326 329 326 325 326 325 326 330 329 326 326 326 324 323 322 321 320 320 319 318 317 315 314 313 311 310 309 309 309 308 307 306 306 306 306
331 331 333 330 333 328 326 326 325 329 326 326 325 326 326 328 328 329 326 326 324 323 322 321 320 319 318 317 315 314 314 312 311 309 309 308 307 306 306 306 305 306 306 307
333 333 333 331 334 332 325 326 327 329 328 326 325 326 327 328 328 327 326 326 323 322 321 319 318 317 315 314 313 313 312 310 309 309 307 307 306 305 305 305 305 307 307 306
334 331 332 330 328 328 327 328 328 327 328 325 325 326 326 327 327 326 326 324 322 320 319 317 315 314 313 312 312 311 311 309 308 307 307 306 306 305 304 304 304 305 304 302
328 329 330 329 327 327 328 326 326 327 326 325 325 326 326 326 325 325 324 323 321 319 317 315 314 312 311 310 309 309 308 307 307 308 307 307 305 304 304 303 303 302 302 300
327 328 330 329 327 326 326 327 326 327 325 325 325 325 325 325 325 323 322 321 318 316 315 313 312 311 310 308 308 307 307 306 306 307 307 306 304 304 304 303 303 302 301 299
327 328 331 331 327 326 327 326 326 326 326 325 325 324 323 323 322 321 320 317 316 314 313 312 310 309 308 307 306 306 306 306 306 306 305 303 304 305 304 303 303 301 299 299
Wind_Speed
13 11 13 16 14 17 11 4 11 8 8 8 13 17 13 10 11 13 11 11 10 9 10 9 10 10 11 11 11 11 11 9 7 5 3 5 5 5 5 8 10 11 11 12
8 13 15 14 8 10 11 8 10 7 3 7 10 13 5 11 13 12 14 13 11 10 10 10 11 11 11 10 11 11 11 10 9 8 6 5 4 6 5 7 8 11 11 12
15 3 4 4 9 11 15 14 9 7 9 11 7 15 15 16 14 11 11 11 12 13 12 10 12 11 11 11 11 11 11 10 10 7 5 4 3 6 6 7 8 10 12 13
11 6 6 11 14 13 14 9 5 2 9 12 12 13 17 19 16 15 13 11 11 11 10 11 12 12 11 12 12 11 10 9 10 9 10 10 8 7 7 7 8 8 11 13
8 6 10 12 12 9 7 5 8 9 11 14 11 8 12 19 14 16 16 16 14 13 11 12 13 13 12 12 11 10 10 10 10 10 9 7 8 6 7 7 7 6 8 11
2 2 9 5 5 3 5 6 8 12 13 14 17 16 13 9 17 19 21 15 14 13 13 13 14 14 13 12 12 10 10 10 9 10 10 10 9 8 7 7 8 7 8 10
9 12 9 5 9 7 10 9 9 12 12 14 5 5 11 8 5 5 2 14 15 14 14 14 15 16 15 14 12 11 10 9 8 8 8 8 9 7 7 7 8 8 9 11
11 13 12 12 14 9 16 14 11 14 10 6 9 5 4 9 5 2 1 8 11 15 15 15 17 17 16 13 12 11 10 9 7 7 7 6 4 5 6 6 7 8 9 7
7 8 9 5 9 7 13 8 9 10 14 12 14 15 10 9 4 1 4 7 10 14 15 16 19 15 15 15 13 12 11 10 8 7 7 5 4 4 4 3 3 5 6 9
5 8 11 9 7 9 12 8 6 10 13 15 13 8 8 11 5 5 6 8 11 13 15 15 16 16 15 16 14 12 11 10 9 7 6 5 4 2 1 1 3 4 6 8
10 7 4 6 11 15 9 12 12 11 10 10 10 7 4 5 1 2 6 9 12 14 14 13 15 20 17 15 16 14 12 10 9 7 5 4 4 3 3 4 6 8 9 10
15 6 12 15 5 5 9 12 10 10 11 12 11 11 8 2 4 6 7 8 10 12 13 13 16 15 15 15 13 14 10 9 9 7 6 5 5 6 6 7 10 12 13 14
10 9 12 17 12 10 13 17 13 13 11 15 14 13 8 7 4 5 9 10 11 13 13 11 11 12 12 11 11 10 10 9 8 8 7 7 7 8 7 7 12 14 15 15
4 12 15 14 16 1 16 17 16 14 13 15 17 18 9 12 8 7 8 7 7 7 11 11 11 12 14 13 12 11 10 9 7 5 5 5 2 6 9 9 7 8 9 9
6 15 18 20 21 21 13 14 16 17 18 20 19 21 18 8 6 10 9 3 6 7 9 7 4 4 8 6 3 4 3 5 7 7 11 9 6 3 3 4 7 8 12 14
9 11 16 20 18 20 17 21 20 20 22 22 21 22 17 11 12 11 5 5 9 3 5 6 8 7 6 7 4 3 3 11 6 5 5 4 6 2 4 6 8 11 12 13
15 10 14 18 18 22 24 18 20 22 23 23 21 17 7 6 5 7 7 6 8 10 10 10 11 11 10 9 5 11 5 8 6 6 6 4 3 6 9 12 12 12 14 16
15 15 13 16 16 24 19 14 15 16 17 17 19 17 13 4 4 5 8 12 12 12 10 11 11 11 10 9 8 8 6 9 7 3 3 4 8 7 10 12 13 16 17 17
12 13 15 14 16 19 16 9 12 15 18 17 17 9 6 5 8 9 10 13 12 11 9 9 11 10 9 9 7 6 4 4 2 3 5 5 10 12 14 16 18 18 17 18
14 12 13 15 19 22 15 12 13 10 17 17 16 12 9 12 11 11 12 11 12 13 12 11 12 11 9 6 6 3 3 1 3 5 8 8 10 13 15 14 16 19 16 16
14 15 18 15 16 21 13 6 6 12 9 4 14 11 12 12 3 19 16 13 14 13 12 10 7 9 6 5 5 4 3 3 4 6 7 12 12 12 14 13 16 16 14 13
16 8 17 15 20 26 14 14 15 4 3 4 6 11 12 11 12 14 14 13 13 12 11 9 7 8 7 5 3 2 3 4 6 6 8 7 8 12 13 14 14 14 13 14
18 15 13 14 12 9 6 15 14 9 7 8 10 11 13 15 14 14 12 12 13 11 8 7 9 8 6 3 3 4 2 5 6 3 3 6 9 10 10 11 13 12 11 16
21 20 14 14 20 17 7 9 9 13 12 10 11 14 15 15 14 13 12 10 11 10 9 8 9 9 6 2 1 4 5 6 5 5 5 7 6 8 8 9 9 14 14 19
14 18 17 19 16 10 17 14 14 14 12 12 12 13 14 14 13 13 11 10 11 12 11 8 5 6 5 3 2 2 3 6 7 3 3 4 3 3 5 7 6 9 7 9
13 15 9 13 18 15 12 14 14 14 14 12 14 14 13 15 14 14 11 12 11 11 10 8 5 4 2 0 2 2 3 2 2 3 1 3 2 5 5 8 4 5 2 4
Wind_Direction
196 227 218 225 232 263 320 228 262 206 89 282 239 235 165 180 205 188 186 180 169 146 137 129 118 112 101 91 83 73 69 64 67 74 77 63 61 64 78 29 30 18 12 6
198 230 250 229 246 249 256 247 238 65 307 256 246 262 179 192 214 206 202 187 172 151 155 141 132 120 109 101 91 81 74 69 66 76 81 78 58 54 44 37 33 23 17 12
240 219 149 237 220 235 234 243 227 253 165 233 249 237 196 213 212 206 202 190 174 177 161 153 145 130 119 106 96 87 78 71 64 57 80 93 113 64 29 28 17 24 20 17
235 110 214 220 227 220 228 229 338 238 234 249 196 272 176 195 201 191 196 206 183 176 163 162 151 139 125 112 104 94 85 76 68 63 65 56 62 39 23 21 19 20 21 19
204 180 205 214 221 203 45 119 226 253 267 279 215 240 285 171 202 204 204 195 194 177 175 169 161 147 136 131 119 110 101 90 81 75 73 73 50 67 44 27 23 29 31 25
248 266 210 241 117 199 51 240 235 251 253 252 243 250 254 203 199 204 187 192 188 176 179 176 158 154 149 142 134 128 118 109 100 91 82 80 74 55 42 31 14 18 24 23
192 203 204 247 192 201 225 233 241 234 230 236 145 214 256 104 58 351 340 174 179 182 182 176 170 170 164 155 150 140 135 124 114 99 93 90 81 70 54 12 32 9 24 20
198 189 186 204 244 238 202 245 263 285 282 294 139 249 221 82 107 17 254 274 178 180 187 184 183 173 170 161 161 156 151 145 138 121 108 102 95 75 70 52 31 22 8 15
279 219 111 181 232 264 261 238 286 298 282 275 284 271 143 135 136 153 235 216 184 183 188 185 181 169 173 171 172 173 164 162 157 144 135 130 114 78 88 58 345 8 356 343
280 270 172 157 232 230 262 331 230 218 256 262 268 279 335 152 183 167 223 198 185 189 189 186 171 182 186 183 179 182 180 178 174 168 165 163 167 166 146 330 330 326 323 325
238 240 222 164 208 237 184 230 241 277 303 301 288 283 60 349 339 193 210 188 192 196 196 185 186 190 194 187 184 188 190 187 189 195 194 200 222 237 268 296 301 302 302 304
225 251 250 226 236 273 303 289 252 241 245 244 259 267 33 242 258 185 217 205 199 199 201 201 196 191 200 199 207 182 203 210 206 214 224 234 252 263 278 288 293 298 302 306
208 215 248 252 189 212 236 241 249 264 271 267 278 283 148 165 234 236 250 234 195 200 214 209 216 207 208 225 221 228 201 229 240 216 229 238 259 262 284 322 319 315 310 310
339 233 247 254 266 313 210 244 241 234 253 260 262 276 233 180 198 223 218 247 269 202 207 219 205 202 212 216 227 221 233 230 221 245 264 268 336 343 310 313 329 337 339 343
233 243 247 251 261 275 267 248 221 238 251 260 276 282 289 304 204 209 219 230 281 254 274 275 214 258 112 123 172 237 263 93 72 48 42 48 52 43 318 324 325 319 320 318
214 252 255 263 256 261 257 268 264 262 268 266 259 267 277 278 277 262 246 239 252 167 117 103 92 90 77 77 97 138 151 82 84 74 64 72 63 2 348 345 327 324 320 313
228 247 248 253 262 265 255 233 260 267 266 268 265 267 290 306 261 275 253 211 137 123 126 125 114 110 109 103 104 76 70 63 81 108 100 89 342 343 331 326 320 319 320 315
219 238 250 259 254 253 272 284 287 275 278 274 261 257 264 290 272 202 168 139 136 137 145 137 121 118 109 95 97 127 127 109 115 117 93 344 332 322 319 327 343 339 337 333
242 240 250 246 251 260 255 191 237 247 263 259 263 262 234 208 167 148 151 142 144 125 117 116 114 107 106 110 116 105 103 107 47 24 338 341 349 333 329 345 350 332 332 340
208 242 256 244 252 252 266 285 318 221 261 253 254 222 209 180 198 171 149 125 128 137 136 131 122 112 105 101 106 114 121 326 59 20 359 336 336 342 339 342 339 339 343 335
221 222 228 239 256 263 260 152 145 222 276 334 213 197 192 189 6 124 141 140 140 136 135 132 128 110 107 105 104 110 145 59 5 346 333 2 11 345 340 360 345 336 327 323
204 223 236 233 250 256 254 186 203 346 121 185 179 180 174 134 133 138 143 142 141 135 137 131 125 114 120 121 121 85 46 16 330 1 10 359 360 351 346 345 334 336 348 338
256 205 227 245 247 251 279 208 202 234 232 190 184 170 176 149 157 155 148 147 151 150 136 134 137 139 142 132 34 339 105 313 338 358 15 351 353 347 354 341 341 328 359 358
236 246 247 248 257 258 211 206 219 199 219 191 194 179 188 159 165 155 152 155 154 142 145 158 176 142 118 99 11 1 356 321 312 319 335 353 10 20 12 357 343 2 8 355
261 271 225 258 243 241 222 221 202 200 214 190 199 182 178 160 153 154 158 158 160 156 166 169 161 132 150 202 153 262 318 324 324 312 350 352 27 33 341 326 357 354 39 33
269 274 196 232 237 218 222 214 213 206 207 198 180 182 169 155 150 156 158 163 156 154 154 152 151 164 154 186 336 322 315 308 308 259 32 30 9 331 323 326 298 218 160 51